Lapse_Rate
6.1 6.2 6.3 6.3 6.4 6.4 6.2 6.3 6.5 6.7 6.7 6.8 6.8 6.9 6.9 7.0 6.8 6.9 7.2 7.3 7.1 7.0 7.1 7.1 6.9 6.8 6.8 6.4 6.6 7.3 8.2 9.2 9.6 9.1 9.1 8.9 8.7 8.1 8.1 8.4 8.1 7.3 7.9 7.5 7.4
6.0 6.0 6.2 6.3 6.3 6.3 6.3 6.2 6.5 6.5 6.5 6.7 6.8 6.9 6.9 6.9 6.9 7.0 7.1 7.3 7.2 7.1 7.1 7.0 6.8 6.4 6.4 6.7 7.0 7.6 8.5 9.4 9.4 9.5 9.2 9.2 9.1 9.1 8.3 7.7 7.8 7.7 7.0 7.1 7.2
6.1 6.0 6.1 6.1 6.1 6.3 6.3 6.4 6.2 6.4 6.5 6.6 6.6 6.8 6.8 6.8 7.0 6.9 7.1 7.3 7.2 7.2 7.0 7.0 6.3 6.6 6.7 7.0 7.7 8.1 8.7 9.4 9.5 9.5 9.2 9.1 9.3 9.1 8.8 8.0 8.1 7.6 7.4 7.0 7.1
5.8 5.9 6.0 6.0 6.1 6.3 6.4 6.3 6.3 6.4 6.3 6.4 6.6 6.8 6.8 6.8 6.8 6.8 7.0 7.2 7.1 7.1 7.1 7.1 6.9 6.6 6.9 7.2 8.6 8.8 9.0 8.9 9.2 9.6 9.1 9.1 9.1 9.2 9.0 8.0 7.7 7.4 6.8 7.3 6.8
5.5 5.6 5.8 5.9 6.0 6.0 6.4 6.5 6.5 6.4 6.5 6.5 6.4 6.6 6.8 6.7 7.4 6.9 7.1 7.1 7.2 7.1 7.1 7.1 6.8 6.8 7.1 7.4 9.0 9.3 8.8 8.8 9.3 9.0 9.0 9.0 8.9 8.9 8.0 7.3 7.7 7.4 7.3 7.1 6.4
5.2 5.4 5.5 5.6 5.7 5.9 6.0 6.4 6.5 6.5 6.4 6.5 6.5 6.3 6.5 7.1 6.9 6.8 6.9 7.2 7.4 7.1 7.1 7.1 6.6 7.0 7.2 7.4 8.0 8.8 9.1 8.7 8.8 9.2 9.0 8.7 8.8 8.6 7.1 6.4 7.4 7.8 7.7 6.7 6.2
5.5 5.4 5.4 5.5 5.5 5.5 5.7 5.9 6.2 6.4 6.5 6.6 6.5 6.2 6.4 7.7 6.6 6.9 7.1 6.9 7.4 7.2 7.1 7.0 6.6 7.0 7.1 7.4 7.8 8.3 8.3 8.6 8.9 9.1 9.0 8.8 8.8 8.1 7.9 6.9 7.4 7.8 7.7 7.4 6.6
5.9 5.7 5.7 5.6 5.6 5.5 5.6 5.5 5.8 6.0 6.1 6.3 6.3 6.2 6.5 7.6 6.8 7.1 7.0 7.1 7.4 7.2 7.1 6.6 6.9 6.8 6.8 7.2 7.6 8.3 8.5 8.7 9.2 9.2 8.7 8.7 8.7 8.2 8.5 7.5 6.6 7.5 7.5 7.3 7.0
6.2 6.0 5.8 5.9 5.8 5.7 5.6 5.5 5.6 5.8 5.8 6.0 6.1 6.0 6.8 7.3 7.2 7.0 7.0 7.0 7.2 7.2 7.1 6.9 6.7 6.8 6.8 7.1 7.8 8.6 8.8 9.6 9.4 8.9 8.9 8.9 7.9 7.3 7.5 7.5 6.7 7.1 6.7 6.8 7.0
6.2 6.2 6.0 6.0 6.0 5.9 5.9 5.6 5.5 5.6 5.7 5.7 6.0 5.6 6.7 6.8 6.7 7.3 7.3 6.8 6.9 7.0 6.8 6.9 7.0 6.6 6.9 7.4 8.2 9.2 9.2 9.3 9.3 8.7 8.9 9.2 8.1 8.0 7.5 7.3 6.6 7.3 7.0 6.8 6.0
5.9 6.1 6.1 6.1 6.1 6.1 5.9 5.8 5.7 5.4 5.1 5.9 5.7 6.3 5.6 6.0 6.6 6.9 7.2 6.9 6.5 6.2 6.4 6.6 6.6 7.0 7.4 7.9 8.6 9.3 9.1 9.0 9.0 8.7 8.8 9.1 9.1 8.3 7.0 7.1 7.8 7.7 7.3 7.0 6.8
5.2 5.7 6.1 5.9 5.9 6.0 6.0 5.9 5.5 4.8 5.1 5.7 6.5 5.5 6.8 6.4 5.9 6.7 6.2 7.0 6.4 6.5 6.8 6.9 6.8 7.3 7.6 8.7 8.5 8.5 8.7 9.1 9.4 9.0 8.7 9.2 9.2 8.3 8.3 8.1 8.6 8.2 7.9 7.4 6.8
4.7 4.9 5.2 5.6 5.7 5.8 5.7 5.9 5.7 5.0 5.2 5.5 6.5 6.3 7.3 5.9 6.6 6.2 6.2 6.9 6.3 6.7 7.1 7.1 7.6 7.5 7.8 8.4 8.3 8.4 8.9 8.9 8.7 8.9 8.8 8.8 9.1 9.0 8.7 8.6 8.7 8.5 8.4 7.9 7.2
4.4 4.4 4.6 5.0 5.3 5.5 5.5 5.7 5.6 5.3 5.0 5.4 6.5 6.6 7.2 6.2 5.8 7.1 6.2 6.6 6.4 6.5 7.2 7.6 7.9 7.9 8.1 7.9 8.4 8.5 8.9 8.9 9.2 9.3 9.4 8.5 8.4 8.4 8.6 8.8 8.5 8.5 8.3 7.8 7.3
4.4 4.5 4.4 4.7 4.9 5.2 5.0 4.7 4.5 5.5 6.1 7.3 6.7 5.8 6.8 6.0 6.5 7.2 7.0 6.3 6.5 7.0 7.4 7.4 8.3 7.9 7.9 8.1 8.4 9.1 8.1 8.5 8.7 8.9 9.3 9.0 8.2 8.6 8.7 9.1 8.8 8.4 8.2 8.4 8.3
5.3 5.0 4.6 4.6 5.2 5.0 5.1 4.6 5.1 5.6 6.3 7.0 6.4 6.5 6.0 5.6 6.5 7.3 6.8 6.4 7.1 7.3 7.9 8.1 8.4 8.1 8.0 8.1 8.2 8.5 8.2 8.3 8.4 8.6 8.6 9.2 8.8 8.4 8.8 8.9 9.5 8.9 8.3 8.3 8.0
6.3 6.2 5.4 5.2 5.3 5.4 5.2 5.2 5.6 6.2 6.4 7.1 6.4 6.2 6.5 6.1 6.2 6.8 6.5 6.4 6.5 6.8 7.0 7.8 8.3 8.2 8.1 8.0 8.2 8.2 8.2 8.3 8.3 8.4 8.5 9.0 9.1 8.9 8.8 8.8 9.0 9.3 8.7 8.2 8.0
6.0 6.2 6.0 5.8 5.8 5.6 5.5 6.1 6.1 6.0 6.4 7.4 7.5 6.5 6.7 6.9 6.4 6.5 7.2 6.5 6.7 7.1 8.0 7.7 8.3 8.0 8.0 7.9 8.3 8.3 8.3 8.4 7.7 6.7 7.8 8.2 8.9 9.5 8.9 8.8 8.6 8.8 8.9 8.9 8.3
5.3 5.1 5.3 6.0 6.4 5.9 6.2 6.3 5.3 5.8 6.8 7.3 7.3 7.1 6.9 7.2 7.1 6.9 7.0 6.8 6.8 7.0 7.4 7.9 8.1 8.5 8.2 8.0 8.3 8.6 8.2 8.5 7.4 7.1 7.1 7.8 8.9 9.3 8.8 8.8 8.6 8.6 8.6 8.7 8.7
5.0 4.9 5.0 5.9 6.0 6.3 5.7 5.9 5.4 5.4 6.9 8.3 8.1 7.8 8.1 7.8 7.5 7.2 7.3 7.1 7.2 7.1 7.5 8.4 9.0 8.9 8.5 8.2 8.1 8.3 8.4 8.7 8.5 7.1 8.4 9.4 9.3 9.2 9.0 9.0 8.6 8.4 8.4 8.5 8.4
5.0 4.9 4.9 5.5 5.9 5.9 5.0 4.8 5.4 5.8 6.9 7.6 7.3 8.1 8.5 8.9 8.0 7.7 7.6 7.5 7.5 7.2 7.2 8.6 8.6 9.2 9.4 8.1 8.1 8.2 8.1 8.1 8.9 9.3 8.7 8.2 8.7 8.3 8.8 8.9 8.7 8.6 8.3 8.2 8.2
5.1 4.7 4.7 5.7 5.3 5.1 5.0 5.3 5.3 6.0 7.8 7.7 7.0 7.8 8.7 8.7 9.0 8.1 8.0 8.0 7.9 7.1 7.6 8.9 8.8 8.9 8.9 8.4 8.3 8.6 8.5 8.6 8.6 8.8 8.3 8.3 8.5 8.5 8.7 9.1 8.9 8.2 8.2 8.2 7.9
5.0 4.8 5.0 5.5 5.0 4.9 5.5 5.4 5.4 6.2 7.2 8.1 7.2 7.7 8.5 8.5 8.7 8.2 8.3 8.4 8.3 7.6 7.1 8.9 8.5 9.0 8.2 8.7 8.4 8.5 8.8 8.5 8.7 8.9 8.9 7.8 8.3 8.9 9.0 9.0 8.8 8.7 8.7 8.4 8.1
5.3 5.1 4.9 5.3 5.3 5.6 5.2 5.4 5.6 6.4 6.4 7.8 7.9 8.2 8.7 7.9 8.4 7.6 8.1 8.7 8.3 7.8 7.8 8.8 8.9 8.9 8.7 8.3 8.4 8.6 8.5 8.6 8.7 8.9 8.6 8.5 8.5 8.9 8.9 8.6 8.7 8.7 8.6 8.6 8.0
5.5 5.0 5.0 4.9 5.2 5.2 4.9 5.5 5.8 6.2 6.6 6.9 7.8 7.8 7.7 8.4 7.9 8.3 8.2 8.4 8.2 8.4 8.3 8.1 8.9 9.1 9.2 9.2 9.0 8.7 8.5 8.6 8.6 8.9 8.6 8.6 8.8 9.0 9.3 9.0 9.0 9.0 8.9 8.3 8.3
5.7 5.3 5.0 5.3 5.8 5.2 5.3 5.4 6.2 6.3 6.6 7.0 7.1 8.2 8.1 8.3 8.4 8.9 9.2 8.3 8.4 8.1 8.7 8.9 8.3 8.9 9.0 8.9 8.7 8.7 9.2 8.8 8.5 8.8 9.2 9.3 9.3 9.4 9.3 9.4 9.0 9.0 8.9 8.7 8.3
6.5 6.2 5.6 5.5 5.5 5.2 5.4 5.5 5.9 6.7 6.8 6.9 7.2 7.9 7.9 6.9 7.0 6.6 8.1 7.9 8.1 7.8 8.2 8.8 8.8 8.5 8.4 8.7 8.8 8.8 8.9 9.4 9.4 9.4 9.4 9.4 9.2 9.2 9.4 9.4 9.3 9.2 8.7 8.2 7.9
Wind_Speed
13 14 16 16 17 14 14 16 15 15 15 18 21 23 26 29 33 20 15 6 7 9 3 11 13 14 14 15 17 12 11 14 13 11 10 9 8 10 4 7 17 19 14 9 14
13 14 16 16 16 17 17 17 16 16 17 17 20 24 27 27 22 20 6 11 10 7 7 12 11 12 11 17 12 10 12 19 10 10 12 8 14 5 4 14 10 23 3 9 12
14 15 15 16 15 15 16 17 17 17 17 18 19 23 29 27 14 4 4 9 8 8 13 16 13 13 13 17 13 14 14 17 15 7 10 15 16 7 10 5 7 9 8 11 10
13 14 15 16 16 16 16 18 18 17 16 17 18 21 32 7 7 5 9 8 6 8 12 13 11 13 14 18 16 15 12 15 16 13 11 12 13 16 4 4 13 15 12 11 11
14 14 14 16 16 16 16 17 19 18 15 16 18 19 13 9 15 8 7 7 7 9 13 13 14 15 15 19 15 12 14 13 18 11 14 12 10 15 10 18 14 15 11 13 9
16 16 14 13 15 16 17 18 18 19 18 14 15 18 12 20 14 8 7 10 12 13 13 14 14 14 17 17 18 15 14 14 16 19 11 12 5 5 18 27 13 11 11 11 10
16 17 15 14 13 16 18 19 19 18 17 15 15 10 15 25 13 19 7 12 14 15 14 16 15 16 13 16 15 16 17 17 18 17 12 14 10 3 7 15 7 11 9 9 8
17 18 18 16 16 18 18 22 22 20 16 15 14 11 12 13 19 19 19 15 14 13 15 16 12 11 16 16 18 17 17 16 14 6 13 12 7 5 9 4 11 11 11 11 13
18 17 17 15 17 18 20 22 25 24 15 13 8 9 15 9 17 19 15 17 14 13 11 12 9 13 15 16 14 16 15 19 16 10 14 8 2 8 16 11 16 12 12 10 16
16 17 18 16 16 18 21 28 24 11 10 11 11 11 14 13 11 15 17 16 15 12 13 12 8 13 14 13 15 16 11 20 12 9 12 11 15 13 12 21 24 14 13 11 16
15 15 16 17 14 15 16 11 5 7 11 11 11 8 18 8 7 8 14 17 18 18 16 17 13 16 19 20 22 16 13 15 4 4 4 9 9 16 19 21 17 15 15 16 13
16 14 15 16 13 12 10 7 8 6 11 20 24 24 25 21 9 15 15 16 20 21 19 16 19 19 21 21 7 12 14 15 2 2 3 11 7 21 17 13 11 14 15 15 15
15 14 15 14 9 9 15 21 18 11 9 18 25 24 29 24 24 17 21 22 22 21 21 20 20 20 21 11 9 13 14 3 18 4 13 13 13 9 2 11 8 13 14 18 16
17 15 15 6 5 14 14 17 22 13 7 14 14 8 26 23 24 26 20 21 16 23 23 24 23 13 16 10 13 14 10 11 11 10 7 6 9 11 11 11 13 10 12 13 16
19 16 15 18 9 7 5 17 10 4 6 6 11 4 8 21 6 24 27 23 25 22 17 21 20 19 14 15 15 13 6 11 10 12 14 10 5 11 13 15 14 14 12 14 11
21 18 17 10 12 18 19 14 4 7 11 6 9 8 12 22 26 14 26 23 21 24 20 21 16 19 18 15 13 10 9 9 12 11 11 14 6 9 5 10 11 18 17 15 18
23 20 16 16 11 19 6 6 7 11 10 12 14 11 16 18 25 21 27 25 23 22 20 18 22 17 15 16 18 9 10 7 6 8 8 6 9 7 12 12 14 8 19 19 16
25 21 18 16 19 17 2 5 15 21 29 5 19 16 17 17 19 24 21 23 24 21 14 16 16 24 13 17 14 14 14 8 6 3 4 12 6 5 10 10 5 1 2 9 16
27 10 12 11 20 8 3 14 15 27 24 28 9 11 15 17 11 21 25 22 24 24 21 19 21 20 16 15 18 14 13 16 9 9 5 5 14 6 9 5 7 4 2 7 6
10 10 14 19 20 8 5 17 27 29 31 21 28 13 13 17 16 17 22 19 22 24 18 16 13 22 21 17 18 16 9 10 6 4 6 6 7 3 8 6 8 8 6 6 2
10 6 10 24 10 6 11 28 34 24 30 23 25 20 24 16 17 17 13 16 19 17 26 25 15 15 17 16 18 11 11 11 13 7 1 4 2 2 7 6 7 6 7 5 5
8 9 10 16 11 8 24 25 30 28 29 27 24 25 18 20 13 19 21 16 15 21 23 25 9 10 16 17 16 17 17 15 6 8 5 2 5 4 11 5 8 7 6 4 4
6 5 9 15 13 19 23 33 26 30 25 24 28 21 14 19 14 15 14 10 2 19 20 20 16 10 15 16 16 19 14 14 13 11 11 8 4 2 2 3 1 3 7 9 7
6 6 5 14 18 27 26 27 28 31 31 24 23 22 19 16 12 8 17 5 5 7 22 16 17 15 11 15 14 14 16 19 18 7 7 9 11 16 3 9 10 11 12 7 9
7 9 11 15 23 29 25 14 27 30 29 23 22 20 23 15 15 15 10 10 3 3 5 4 16 17 17 19 20 21 18 19 19 13 15 12 15 15 12 7 6 4 8 4 3
6 8 15 10 19 26 25 28 25 30 29 34 26 18 17 17 16 19 18 9 5 7 9 6 12 17 16 19 19 14 19 22 20 19 16 17 17 15 12 8 8 6 8 4 5
5 13 12 17 22 17 26 30 31 23 27 30 29 19 12 21 5 9 7 4 3 3 10 9 7 12 15 17 18 17 17 14 14 15 15 15 11 11 12 10 7 6 7 6 9
Wind_Direction
339 337 336 338 330 304 304 308 317 323 329 327 327 324 321 317 315 298 259 268 176 160 171 244 219 238 238 258 260 277 269 267 309 296 129 168 218 226 10 304 50 24 17 81 104
338 335 332 329 334 331 312 307 312 317 323 325 325 321 318 322 307 287 265 129 136 167 224 230 224 229 241 245 240 238 266 277 296 322 304 249 229 232 231 45 18 4 52 124 136
325 331 332 329 328 325 322 316 311 313 315 320 324 321 315 319 300 80 171 142 142 190 247 282 262 282 252 266 243 252 257 290 312 320 317 314 308 188 250 55 113 208 232 166 164
311 319 322 325 323 321 323 318 307 305 309 315 320 322 315 296 293 101 149 139 170 220 238 262 260 257 255 266 242 246 272 270 269 303 302 286 297 322 48 174 218 213 168 140 122
297 306 314 322 322 319 315 311 310 305 302 307 316 322 324 286 258 124 155 161 184 204 229 247 248 250 254 262 273 263 263 267 275 277 274 291 313 295 59 127 137 124 140 128 141
298 297 301 310 319 317 315 310 308 306 301 301 306 317 280 268 258 227 230 181 220 211 231 245 252 254 268 290 290 286 300 292 287 282 271 266 292 40 18 344 106 137 149 149 146
288 295 294 301 313 312 313 309 302 302 303 297 295 295 271 253 277 289 266 250 222 217 232 238 253 267 276 262 267 264 274 274 264 259 263 255 232 47 173 180 191 144 155 138 147
279 287 293 297 305 309 309 307 301 294 288 285 286 280 260 263 262 248 243 238 238 228 233 268 252 270 271 283 285 275 263 266 279 224 257 239 287 213 153 226 232 161 155 152 165
282 277 286 291 299 302 306 302 294 282 270 267 269 216 268 240 229 237 236 228 218 233 233 250 265 247 255 252 261 247 252 257 251 219 256 203 73 340 328 274 267 169 157 163 134
281 279 278 283 290 300 309 297 276 277 236 245 241 285 242 252 246 210 214 228 220 209 220 231 234 235 239 252 252 266 242 266 248 204 248 267 150 192 218 235 233 173 152 153 151
267 275 277 279 287 298 317 307 221 203 209 220 197 236 295 220 238 219 194 203 226 208 216 210 222 231 233 231 256 282 303 286 30 343 283 281 254 170 221 235 157 163 159 161 177
266 270 276 273 275 295 295 260 285 353 288 236 247 259 259 272 272 219 190 191 209 211 209 224 222 237 241 255 299 283 266 277 211 186 261 291 289 135 183 199 181 158 174 157 171
258 260 263 268 286 282 256 256 284 328 271 266 246 239 237 232 241 249 188 200 206 214 207 222 224 218 245 250 245 247 257 300 285 263 263 256 267 311 210 161 211 170 173 160 182
240 247 251 232 270 250 250 249 251 287 278 263 230 248 224 222 231 234 225 201 213 215 225 223 238 245 226 231 227 251 228 297 258 266 272 72 287 255 241 187 186 194 167 166 176
229 230 233 201 290 307 48 350 208 212 274 287 183 121 221 196 173 205 228 198 216 208 217 229 223 236 233 236 240 260 149 266 293 276 286 237 250 262 204 218 198 183 181 170 194
226 221 224 220 251 263 284 332 242 228 235 238 141 191 193 201 224 208 200 216 219 235 225 231 228 229 228 233 247 272 267 241 269 263 263 271 247 235 276 290 214 184 178 187 190
220 216 214 219 228 247 261 328 200 223 211 238 174 189 208 200 216 235 188 204 205 212 230 226 241 223 227 228 232 214 245 250 248 249 248 285 280 234 167 243 257 160 176 188 194
214 208 221 223 237 265 114 219 224 222 232 104 188 177 210 207 211 222 213 207 211 215 212 216 224 227 210 236 209 212 228 234 194 261 343 338 253 146 171 174 85 177 272 188 185
209 212 223 208 228 252 220 219 220 231 202 241 223 212 211 223 213 210 225 209 208 214 216 207 228 216 210 212 242 212 216 245 134 231 218 225 255 172 160 164 157 198 134 200 208
202 213 218 203 204 217 218 241 232 239 268 258 230 196 218 205 203 202 209 217 216 205 232 251 214 230 198 201 226 241 248 234 189 175 234 211 265 316 164 162 129 174 117 92 95
194 211 190 193 186 203 216 218 228 232 249 259 263 258 238 243 207 211 216 222 217 200 226 243 255 220 200 201 209 212 229 240 243 243 300 287 89 232 327 139 169 111 128 123 102
187 215 184 159 193 214 225 222 228 228 240 256 275 254 252 253 230 220 217 229 191 210 216 236 246 219 219 191 217 236 209 233 212 227 202 289 260 95 315 203 169 196 165 176 142
187 172 198 169 201 213 226 233 235 236 246 244 254 261 243 269 244 230 213 269 217 174 236 236 238 227 214 211 208 226 229 237 238 235 238 183 261 165 277 356 247 212 213 176 168
167 165 172 196 215 215 211 222 225 234 245 248 251 270 248 262 254 240 207 249 92 233 224 256 230 233 206 220 205 222 228 222 233 228 264 216 229 252 103 274 231 219 208 199 173
176 191 181 189 209 213 211 212 221 220 231 247 248 253 262 246 239 257 237 208 264 290 300 258 228 232 237 245 196 218 216 237 246 227 216 228 251 252 264 193 279 67 66 109 178
166 197 186 207 210 206 217 217 229 213 220 229 243 237 230 260 242 240 223 170 172 233 246 278 224 237 243 246 263 234 228 209 225 243 247 243 238 251 271 254 228 165 145 204 178
181 221 169 213 187 195 212 217 221 222 221 220 230 233 228 256 359 5 11 7 82 306 204 234 217 227 239 243 259 249 242 245 232 233 237 242 249 262 268 272 253 190 184 175 126